Regional Weather Roundup
Issued by NWS

Home | Current Version | Previous Version | Graphics & Text | Print | Product List | Glossary On
Versions: 1 2 3 4 5 6 7 8 9 10 11 12 13 14 15 16 17 18 19 20 21 22 23 24 25 26 27 28 29 30 31 32 33 34 35 36 37 38 39 40 41 42 43 44 45 46 47 48 49 50
000
ASUS45 KSLC 050010
RWRUT

UTAH REGIONAL WEATHER ROUNDUP
NATIONAL WEATHER SERVICE SALT LAKE CITY UT
600 PM MDT TUE AUG 04 2015

UTZ001>011-023>025-050100-

NORTHERN UTAH

CITY           SKY/WX    TMP DP  RH WIND       PRES   REMARKS
BRIGHAM CITY   SUNNY     87  44  22 SW9       30.01F
HILL AFB       SUNNY     87  49  27 CALM      30.05F
LOGAN          SUNNY     85  50  29 SW5       30.01F
OGDEN          SUNNY     88  43  20 S8        30.02F
PROVO AIRPORT  MOSUNNY   90  46  22 VRB5      30.03F
SALT LAKE CITY MOSUNNY   90  46  21 CALM      29.99F
VERNAL         MOSUNNY   86  42  21 NE7       30.10F
WENDOVER       SUNNY     90  45  20 SW3       29.97F
HEBER CITY     SUNNY     86  34  15 SW10G17   30.12S
WEST JORDAN    SUNNY     88  48  25 CALM      30.04F

$$

UTZ012>022-026-027-050100-

SOUTHERN/CENTRAL UTAH

CITY           SKY/WX    TMP DP  RH WIND       PRES   REMARKS
BLANDING       MOSUNNY   83  43  23 NE7       30.23F
BRYCE CANYON   MOSUNNY   80  30  16 SW15      30.30
CEDAR CITY     PTSUNNY   90  21   8 SW16G28   30.11S
DELTA          SUNNY     92  32  12 CALM      30.01F
HANKSVILLE     SUNNY     93  37  14 NE3       30.03S
MILFORD        MOSUNNY   95  31  10 SW17      30.03F
MOAB/CYNLANDS  SUNNY     91  41  17 S7        30.02F
PRICE          MOSUNNY   87  41  19 S6        30.14F
ST GEORGE      CLEAR    100  36  10 W12       29.91S HX  95
KANAB          MOSUNNY   91  34  13 SW9       30.12F

$$

REGIONAL REPORTS     COLORADO/ARIZONA

CITY           SKY/WX    TMP DP  RH WIND       PRES   REMARKS
CRAIG, CO      NOT AVBL
GRAND JUNCTION MOSUNNY   90  35  14 W6        30.05F
RIFLE          PTSUNNY   87  41  19 W5        30.11F
MONTROSE       MOSUNNY   86  42  21 W5        30.16F
CORTEZ         MOSUNNY   86  41  20 NW9       30.18F
PAGE, AZ       SUNNY     98  34  10 N7        30.00F HX  92
GRAND CANYON   SUNNY     87  25  10 SW17      30.24F
KINGMAN        SUNNY     99  28   8 S20G25    29.99F HX  92
FLAGSTAFF      SUNNY     82  32  16 S9G18     30.29S

$$

REGIONAL REPORTS    NEVADA/IDAHO/WYOMING

CITY           SKY/WX    TMP DP  RH WIND       PRES   REMARKS
LAS VEGAS, NV  PTSUNNY  104  27   6 SW13G24   29.80F HX  97
ELY            PTSUNNY   87  22   9 SW16G26   30.11S
ELKO           MOSUNNY   91  26   9 W12       29.96F
POCATELLO, ID  PTSUNNY   88  38  17 S16G26    30.00S
BURLEY         CLOUDY    80  46  30 SE6       30.01R
EVANSTON, WY   MOSUNNY   79  39  23 W9        30.22F
ROCK SPRINGS   SUNNY     78  35  21 W16G26    30.18F
KEMMERER       MOSUNNY   73  36  25 W8        30.23F

$$



USA.gov is the U.S. government's official web portal to all federal, state and local government web resources and services.